Home > Weather > Auxerre > Past weeks

Flag for France Past Weather in Auxerre, Burgundy, France — Yesterday and Last 2 Weeks

Now
59 °F

Overcast.


Feels Like: 60 °F
Forecast: 51 / 66 °F
Wind: 3 mph from Southwest

Location: Troyes Airport

Current Time: May 31, 2016 at 8:07:46 PM

Latest Report: May 31, 2016 at 7:30 PM


Visibility: N/A

Pressure: 29.86 "Hg

Humidity: 88%

Dew Point: 55 °F

Location of AuxerreLocation

Past Weather in Auxerre — Graph

°F

Auxerre Temperature Yesterday

Maximum temperature yesterday: 59 °F (at 12:00 AM)
Minimum temperature yesterday: 55 °F (at 7:30 AM)
Average temperature yesterday: 57 °F

High & Low Weather Summary for the Past Weeks

 TemperatureHumidityPressure
High77 °F (May 21, 4:00 PM)100% (May 17, 3:30 AM)30.15 "Hg (May 17, 3:30 AM)
Low43 °F (May 24, 3:30 AM)49% (May 17, 6:30 PM)29.68 "Hg (May 29, 5:30 AM)
Average58 °F85%29.92 "Hg
* Reported May 16 6:00 PM — May 31 6:30 PM, Auxerre, Weather by CustomWeather, © 2016

Note: Actual official high and low records may vary slightly from our data, if they occured in-between our weather recording intervals... More about our weather records

Advertising

Auxerre Weather History for the Previous 24 Hours

Scroll right to see more
 ConditionsComfort  
Time TempWeatherWind HumidityBarometerVisibility
6:30 PM
Tue, May 31
59 °FMostly cloudy.5 mph94%29.83 "HgN/A
6:00 PM59 °FMostly cloudy.3 mph94%29.83 "HgN/A
5:30 PM57 °FPartly sunny.8 mph100%29.83 "HgN/A
5:00 PM57 °FLight rain. Partly sunny.9 mph100%29.83 "Hg4 mi
4:30 PM57 °FLight rain. Broken clouds.9 mph94%29.83 "Hg4 mi
4:00 PM57 °FDrizzle. Partly sunny.7 mph94%29.83 "Hg4 mi
3:30 PM57 °FLight rain. Partly sunny.7 mph94%29.80 "Hg5 mi
3:00 PM57 °FLight rain. Broken clouds.7 mph94%29.80 "HgN/A
2:30 PM57 °FLight rain. Partly sunny.7 mph94%29.80 "HgN/A
2:00 PM57 °FLight rain. Scattered clouds.7 mph94%29.80 "HgN/A
1:30 PM57 °FRain. More clouds than sun.7 mph94%29.80 "HgN/A
1:00 PM57 °FRain. Partly sunny.7 mph94%29.77 "HgN/A
12:30 PM57 °FRain. Partly sunny.8 mph94%29.77 "HgN/A
12:00 PM57 °FRain. Mostly cloudy.9 mph94%29.77 "HgN/A
11:30 AM57 °FLight rain. Mostly cloudy.7 mph94%29.77 "Hg4 mi
11:00 AM57 °FLight rain. Mostly cloudy.7 mph94%29.77 "HgN/A
10:30 AM55 °FLight rain. Mostly cloudy.8 mph94%29.74 "Hg4 mi
10:00 AM55 °FLight rain. Mostly cloudy.8 mph100%29.74 "Hg4 mi
9:30 AM55 °FLight rain. Overcast.8 mph94%29.74 "Hg4 mi
9:00 AM55 °FDrizzle. Mostly cloudy.8 mph94%29.74 "Hg6 mi
8:30 AM55 °FMostly cloudy.8 mph94%29.74 "Hg4 mi
8:00 AM55 °FFog.9 mph94%29.71 "Hg2 mi
7:30 AM55 °FRain. Fog.10 mph94%29.71 "Hg2 mi
7:00 AM55 °FDrizzle. Fog.9 mph94%29.71 "Hg3 mi
6:30 AM54 °FMostly cloudy.10 mph100%29.71 "Hg5 mi
6:00 AM54 °FMostly cloudy.9 mph100%29.71 "Hg5 mi
5:30 AM54 °FLight rain. Mostly cloudy.10 mph100%29.71 "HgN/A
5:00 AM54 °FLight rain. Passing clouds.12 mph100%29.71 "HgN/A
4:30 AM54 °FDrizzle. Mostly cloudy.10 mph100%29.71 "HgN/A
4:00 AM54 °FDrizzle. Mostly cloudy.10 mph100%29.74 "HgN/A
3:30 AM54 °FMostly cloudy.9 mph100%29.74 "HgN/A
3:00 AM54 °FPartly cloudy.9 mph100%29.74 "HgN/A
2:30 AM54 °FPartly cloudy.9 mph100%29.74 "HgN/A
2:00 AM54 °FFog.10 mph100%29.74 "Hg3 mi
1:30 AM54 °FDrizzle. Mostly cloudy.10 mph100%29.74 "Hg4 mi
1:00 AM55 °FDrizzle. Fog.10 mph94%29.74 "Hg3 mi
12:30 AM55 °FDrizzle. Mostly cloudy.9 mph94%29.74 "Hg4 mi
12:00 AM55 °FLight rain. Mostly cloudy.8 mph94%29.74 "Hg4 mi
11:30 PM
Mon, May 30
55 °FLight rain. Overcast.13 mph94%29.74 "HgN/A
11:00 PM55 °FLight rain. Mostly cloudy.10 mph94%29.74 "HgN/A
10:30 PM55 °FLight rain. Overcast.13 mph94%29.74 "HgN/A
10:00 PM55 °FLight rain. Mostly cloudy.12 mph94%29.74 "HgN/A
9:30 PM55 °FLight rain. Partly sunny.10 mph94%29.74 "HgN/A
9:00 PM55 °FLight rain. Fog.13 mph100%29.74 "Hg2 mi
8:30 PM55 °FLight rain. Fog.13 mph100%29.74 "Hg2 mi
8:00 PM55 °FLight rain. Cloudy.12 mph100%29.74 "Hg5 mi
Weather by CustomWeather, © 2016

See weather overviewHow to use our weather pages